TIME,DELAY(SENSOR),PRES,T(CTD),SAL,OXYGEN,RAWTEMP,T(OPTODE),TCPHASE,TURBIDITY,TURBIDITY_GAIN,FLUOR,BETA,CDOM,ED411.5,ED443.8,ED489.6,PAR,COMP,TILT,TILTY(TILT),CHECK
1341401848,6467,258.3399963378906000,4.9593000411987305,34.9814987182617200,343.8969116210937500,760.1348266601562000,4.9315528869628910,34.2851600646972660,16,3,49,119,64,2147242811,2147558267,2147568639,2147362856,2808,0,-12,64921
1341401909,6469,255.0399932861328000,4.9836001396179200,34.9831008911132800,343.6400146484375000,759.3530883789062000,4.9588999748229980,34.2786483764648440,16,3,50,118,64,2147241892,2147560383,2147569791,2147358070,2469,0,-12,25998
1341401970,6466,251.6699981689453000,4.9955000877380370,34.9838981628418000,343.8467102050781000,759.1231079101562000,4.9669461250305180,34.2667198181152340,11,3,50,115,65,2147242605,2147559337,2147570975,2147358162,2089,0,-12,33210
1341402031,6467,248.3600006103515600,5.0103001594543460,34.9851989746093750,343.8414916992187500,758.7039794921875000,4.9815998077392580,34.2585906982421900,16,3,50,113,64,2147245860,2147559501,2147568397,2147360283,1688,0,-12,43126
1341402092,6469,244.9900054931640600,5.0163998603820800,34.9850006103515600,343.7908935546875000,758.4990844726562000,4.9887681007385250,34.2564811706543000,16,3,49,118,65,2147243903,2147562435,2147572502,2147355313,1408,0,-12,38337
1341402153,6467,241.5399932861328000,5.0271000862121580,34.9855995178222660,343.6509094238281000,758.1906127929688000,4.9995570182800290,34.2551002502441400,16,3,50,112,65,2147242065,2147559647,2147570755,2147359337,1042,0,-12,17264
1341402214,6467,238.1199951171875000,5.0376000404357910,34.9869003295898440,343.4585876464844000,757.9180297851562000,5.0090851783752440,34.2565116882324200,17,3,50,116,65,2147245407,2147558911,2147569796,2147359218,768,0,-12,3086
1341402275,6468,234.7100067138672000,5.0571999549865720,34.9884986877441400,343.5445861816406000,757.3668823242188000,5.0283470153808590,34.2425994873046900,16,3,48,110,64,2147238559,2147559226,2147571551,2147359053,292,0,-12,31347
1341402336,6468,231.3099975585937500,5.0764999389648440,34.9893989562988300,343.5647888183594000,756.7963256835938000,5.0482878684997560,34.2303390502929700,16,3,50,113,62,2147244648,2147558322,2147573082,2147359652,3479,0,-12,24742
1341402397,6467,227.9299926757812500,5.0977001190185550,34.9911994934082000,343.5114135742187500,756.2409057617188000,5.0676918029785160,34.2214698791503900,16,3,49,110,64,2147242756,2147555945,2147572209,2147359112,2834,0,-12,16346
1341402461,6467,224.4199981689453000,5.0970001220703125,34.9912986755371100,343.7137145996094000,756.1868286132812000,5.0695800781250000,34.2132911682128900,16,3,50,114,64,2147242852,2147557622,2147573906,2147360753,2394,0,-12,28318
1341402522,6466,221.0899963378906200,5.0963001251220700,34.9908981323242200,343.5957031250000000,756.1959838867188000,5.0692582130432130,34.2177391052246100,10,3,50,111,65,2147240900,2147556964,2147571405,2147358171,2074,0,-12,5226
1341402589,6468,217.4400024414062500,5.0956001281738280,34.9897003173828100,343.1947021484375000,756.1881103515625000,5.0695362091064450,34.2312507629394500,16,3,50,116,64,2147243629,2147559359,2147571244,2147358825,1634,0,-12,23276
1341402650,6467,214.1100006103515600,5.1258997917175290,34.9924011230468750,342.9739074707031000,755.3859863281250000,5.0975489616394040,34.2231292724609400,13,3,50,122,64,2147244520,2147558084,2147571085,2147360081,1360,0,-12,45606
1341402713,6468,210.6399993896484400,5.1540999412536620,34.9953994750976560,343.1875915527344000,754.6815185546875000,5.1221470832824710,34.2016487121582000,16,3,50,113,64,2147244854,2147558925,2147571926,2147357334,993,0,-12,46738
1341402774,6468,207.2899932861328000,5.1627001762390140,34.9956016540527340,343.2750854492187500,754.3021850585938000,5.1353888511657715,34.1911697387695300,16,3,50,113,64,2147240269,2147560685,2147571368,2147361160,648,0,-12,18923
1341402837,6467,203.8899993896484400,5.1725997924804690,34.9958992004394500,343.5981140136719000,753.9730834960938000,5.1468749046325680,34.1739196777343750,16,3,50,118,64,2147240854,2147558779,2147574043,2147359446,120,0,-12,27278
1341402898,6466,200.6699981689453000,5.1827001571655270,34.9952011108398440,343.6011047363281000,753.8052978515625000,5.1527309417724610,34.1702804565429700,16,3,50,119,64,2147243720,2147556987,2147573353,2147361608,3177,0,-11,42876
1341402961,6467,197.3800048828125000,5.1880998611450195,34.9953994750976560,343.5604858398437500,753.5496826171875000,5.1616477966308590,34.1668281555175800,16,3,50,119,64,2147242230,2147559689,2147572909,2147359730,2733,0,-12,51356
1341403022,6467,194.1600036621093800,5.2055997848510740,34.9968986511230500,343.2886962890625000,753.0778808593750000,5.1781082153320310,34.1668586730957000,16,3,49,119,64,2147242847,2147558038,2147575853,2147358719,2312,0,-12,20309
1341403085,6467,190.8500061035156200,5.2245998382568360,34.9987983703613300,343.0585021972656000,752.5742187500000000,5.1956810951232910,34.1647605895996100,16,3,50,116,64,2147243409,2147558248,2147573997,2147360539,2038,0,-12,2805
1341403146,6504,187.7200012207031200,5.2355999946594240,34.9992980957031250,343.1341857910156000,752.2357788085938000,5.2074828147888180,34.1557197570800800,119,3,50,120,64,2147244365,2147557878,2147580817,2147365010,1772,0,-12,9837
1341403209,6465,184.4799957275390600,5.2508001327514650,34.9995002746582000,343.3685913085937500,751.8648071289062000,5.2204189300537110,34.1401214599609400,33,3,50,116,65,2147243954,2147557737,2147581119,2147362742,1469,0,-12,27880
1341403270,6469,181.3999938964843800,5.2512998580932620,34.9985008239746100,343.3908081054687500,751.7647705078125000,5.2239060401916500,34.1374397277832000,11,3,50,126,64,2147240228,2147558335,2147582175,2147362934,1211,0,-12,61471
1341403333,6466,178.1699981689453000,5.2795000076293945,34.9998016357421900,343.3839111328125000,751.0457153320312000,5.2489738464355470,34.1236991882324200,16,3,50,116,64,2147244383,2147557183,2147586687,2147363693,726,0,-12,18678
1341403394,6468,175.0399932861328000,5.2864999771118160,35.0004997253418000,343.2307128906250000,750.7520141601562000,5.2592110633850100,34.1234092712402340,16,3,49,129,65,2147240534,2147560968,2147590367,2147364872,417,0,-12,53144
1341403457,6465,171.8099975585937500,5.3141999244689940,35.0018005371093750,342.9252929687500000,749.9445800781250000,5.2873477935791020,34.1178817749023440,16,3,50,122,65,2147241947,2147557586,2147594138,2147363949,66,0,-12,16082
1341403518,6468,168.6799926757812500,5.3404002189636230,35.0043983459472660,342.7488098144531000,749.3043212890625000,5.3096499443054200,34.1117286682128900,16,3,50,126,64,2147242792,2147563382,2147595103,2147363953,3371,0,-11,36877
1341403581,6465,165.4799957275390600,5.3534002304077150,35.0046997070312500,342.9389038085937500,748.8466186523438000,5.3255920410156250,34.0962905883789060,16,3,49,118,64,2147240850,2147559043,2147597837,2147361713,2634,0,-12,36012
1341403642,6467,162.4600067138672000,5.3558001518249510,35.0051002502441400,343.1637878417969000,748.7620239257812000,5.3285388946533200,34.0863609313964840,16,3,50,122,64,2147242472,2147561151,2147595629,2147362321,2358,0,-12,58250
1341403705,6467,159.3999938964843800,5.3668999671936035,35.0046997070312500,342.9047851562500000,748.4617919921875000,5.3389911651611330,34.0898590087890600,18,3,50,120,64,2147239427,2147561732,2147602573,2147362623,2120,0,-12,53511
1341403766,6504,156.4900054931640600,5.3750000000000000,35.0046997070312500,342.4883117675781000,748.2335815429688000,5.3469328880310060,34.0995597839355500,15,3,50,121,64,2147242683,2147557626,2147599647,2147364200,1830,0,-12,64963
1341403829,6466,153.5299987792968800,5.3857998847961430,35.0051002502441400,341.9872131347656000,747.9027099609375000,5.3584542274475100,34.1104583740234400,16,3,50,125,64,2147242811,2147561033,2147600191,2147364351,1499,0,-12,13932
1341403890,6469,150.7200012207031200,5.3951997756958010,35.0054016113281250,341.7250061035156000,747.6383056640625000,5.3676571846008300,34.1145591735839840,16,3,50,123,65,2147242732,2147560873,2147611848,2147363588,1254,0,-12,40948
1341403953,6467,147.8099975585937500,5.4088001251220700,35.0057983398437500,341.6473999023437500,747.2896118164062000,5.3797931671142580,34.1101112365722660,15,3,50,120,65,2147244401,2147563491,2147618144,2147366212,1007,0,-12,58999
1341404014,6467,145.0299987792968800,5.4253001213073730,35.0069999694824200,341.4306030273437500,746.7636108398438000,5.3980960845947270,34.1073493957519500,16,3,50,124,64,2147246025,2147566298,2147620937,2147365234,853,0,-12,28469
1341404077,6466,142.2200012207031200,5.4401998519897460,35.0065002441406250,341.4621887207031000,746.3814697265625000,5.4113898277282715,34.0990791320800800,16,3,50,128,64,2147242536,2147561984,2147619053,2147366994,365,0,-12,28506
1341404138,6468,139.5399932861328000,5.4528999328613280,35.0074996948242200,341.0737915039062500,745.9946289062500000,5.4248471260070800,34.1046485900878900,16,3,50,122,63,2147244836,2147561650,2147618856,2147366582,3515,0,-12,17762
1341404201,6468,136.7899932861328000,5.4713001251220700,35.0092010498046900,340.3422851562500000,745.5089721679688000,5.4417319297790530,34.1206207275390600,16,3,51,123,64,2147244982,2147563707,2147623816,2147367949,2994,0,-12,58493
1341404262,6467,134.1799926757812500,5.4650998115539550,35.0074005126953100,339.6994018554687500,745.5093994140625000,5.4417209625244140,34.1431694030761700,17,3,50,122,64,2147242591,2147563286,2147624246,2147365595,2614,0,-12,35945
1341404325,6467,131.5099945068359400,5.4727001190185550,35.0059013366699200,340.2835083007812500,745.3256835937500000,5.4481091499328610,34.1193389892578100,16,3,50,123,64,2147238070,2147565216,2147630107,2147367468,2349,0,-12,61911
1341404386,6468,128.9799957275390600,5.4903998374938965,35.0063018798828100,340.1315002441406000,744.9797973632812000,5.4601349830627440,34.1176414489746100,13,3,50,121,64,2147240608,2147566276,2147635405,2147368946,2178,0,-12,12409
1341404449,6467,126.4700012207031200,5.4567999839782715,35.0041999816894500,340.0221862792969000,745.1320190429688000,5.4548449516296390,34.1245918273925800,16,3,50,121,64,2147242642,2147565398,2147641320,2147370578,1998,0,-12,28872
1341404510,6467,124.0800018310546900,5.2860999107360840,34.9757995605468750,342.2015991210937500,749.3214721679688000,5.3090519905090330,34.1308708190918000,16,3,56,126,64,2147242847,2147566207,2147648127,2147371880,1965,0,-12,63439
1341404601,6467,119.8499984741211000,5.3333001136779785,34.9746017456054700,343.7738037109375000,748.8328857421875000,5.3260669708251950,34.0673217773437500,16,3,52,130,64,2147243168,2147572054,2147671935,2147374015,1538,0,-12,40085
1341404662,6466,116.1500015258789000,5.4636001586914060,34.9884986877441400,340.7641906738281000,745.8300170898438000,5.4305710792541500,34.1122512817382800,16,3,50,136,64,2147245000,2147575236,2147694289,2147377668,1160,0,-12,48688
1341404725,6468,112.3199996948242200,5.4963998794555660,34.9920997619628900,339.2467956542969000,744.7379760742188000,5.4685420989990230,34.1437110900878900,16,3,50,142,64,2147240918,2147574742,2147700575,2147379962,797,0,-12,38260
1341404786,6468,108.6900024414062500,5.5659999847412110,34.9967994689941400,337.6243896484375000,742.9517211914062000,5.5306172370910645,34.1656608581543000,16,3,50,140,64,2147244945,2147578152,2147714258,2147381540,347,0,-12,1500
1341404874,6467,104.1800003051757800,5.6557002067565920,35.0061988830566400,335.3601989746094000,740.4934082031250000,5.6159629821777340,34.1976890563964840,16,3,51,168,65,2147242394,2147580424,2147720571,2147383839,3398,0,-12,23652
1341404935,6468,102.0800018310546900,5.6684999465942380,35.0079002380371100,334.5603027343750000,739.9262695312500000,5.6356391906738280,34.2151603698730500,15,3,50,133,66,2147244964,2147582499,2147716077,2147384337,2870,0,-12,58728
1341405023,6468,98.5000000000000000,5.7000999450683590,35.0093002319335940,333.9491882324219000,738.8394165039062000,5.6733441352844240,34.2154808044433600,34,3,52,143,66,2147243322,2147579076,2147724123,2147384594,2165,0,-12,24775
1341405084,6467,95.1600036621093800,5.7820000648498535,35.0183982849121100,334.6176147460937500,736.7617187500000000,5.7453608512878420,34.1518707275390600,16,3,54,139,64,2147246806,2147586152,2147743455,2147389174,2022,0,-12,61564
1341405147,6466,91.6999969482421900,5.7589001655578610,35.0122985839843750,339.6088867187500000,736.9058227539062000,5.7403678894042970,33.9803085327148440,17,3,54,138,64,2147246719,2147595350,2147793691,2147400265,1694,0,-12,45506
1341405208,6467,88.4199981689453100,5.8619999885559080,35.0166015625000000,342.8293151855469000,734.4494018554688000,5.8254361152648930,33.8221397399902340,15,3,56,151,64,2147249453,2147609636,2147861467,2147412872,1363,0,-12,38230
1341405271,6465,85.0800018310546900,5.9109001159667970,35.0199012756347660,345.6997070312500000,732.9378051757812000,5.8777427673339840,33.6953887939453100,14,3,56,167,64,2147251131,2147617284,2147915569,2147421284,1023,0,-12,55075
1341405332,6468,81.9000015258789000,5.9355001449584960,35.0186004638671900,348.2253112792969000,732.1876220703125000,5.9036898612976070,33.5956916809082000,20,3,56,158,64,2147254038,2147623588,2147940383,2147426902,711,0,-12,51782
1341405395,6468,78.6200027465820300,5.9566998481750490,35.0133018493652340,350.1553039550781000,731.3704223632812000,5.9319481849670410,33.5155410766601560,16,3,60,191,64,2147254591,2147622084,2147912255,2147425521,310,0,-12,30395
1341405456,6468,75.5299987792968800,5.9927000999450680,35.0124015808105500,351.5614013671875000,730.4420166015625000,5.9640369415283200,33.4511985778808600,15,3,59,156,64,2147254010,2147631986,2147945800,2147433942,3318,0,-12,9133
1341405519,6466,72.3600006103515600,6.0134000778198240,35.0107002258300800,353.1832885742187500,729.7227172851562000,5.9888877868652340,33.3839111328125000,23,3,63,157,62,2147262120,2147648360,2148014596,2147454253,2786,0,-12,11844
1341405580,6467,69.2900009155273400,6.0430002212524410,35.0087013244628900,354.5267028808594000,728.9993286132812000,6.0138759613037110,33.3260307312011700,31,3,66,192,64,2147269256,2147667894,2148094934,2147473517,2451,0,-12,9330
1341405644,6468,66.0800018310546900,6.0710000991821290,35.0063018798828100,355.6694030761719000,728.1635742187500000,6.0427298545837400,33.2726898193359400,29,3,69,160,64,2147276219,2147685650,2148152904,2147491830,1948,0,-12,18536
1341405705,6468,63.0600013732910160,6.1096000671386720,35.0049018859863300,356.7836914062500000,726.9481811523438000,6.0846810340881350,33.2136001586914060,19,3,78,208,64,2147284950,2147706139,2148200936,2147507601,1657,0,-12,15551
1341405768,6467,59.9799995422363300,6.1433000564575195,35.0051002502441400,357.0220031738281000,726.0689697265625000,6.1150150299072270,33.1893386840820300,34,3,85,189,65,2147296648,2147718505,2148240772,2147522623,1318,0,-12,32687
1341405829,6468,56.9399986267089840,6.1918001174926760,35.0047988891601560,356.8091125488281000,724.6179199218750000,6.1650581359863280,33.1691589355468750,25,3,92,186,64,2147312402,2147749467,2148331130,2147558473,1108,0,-12,27219
1341405892,6470,53.7900009155273440,6.2677001953125000,35.0031013488769500,356.3653869628906000,722.4260864257812000,6.2405829429626465,33.1427803039550800,22,3,100,218,64,2147340434,2147801718,2148482893,2147607195,676,0,-12,54220
1341405953,6468,50.5999984741210940,6.4292001724243160,35.0046005249023440,356.0116882324219000,717.8300170898438000,6.3987450599670410,33.0692405700683600,25,3,122,271,64,2147394720,2147894284,2148752680,2147695766,261,0,-12,45288
1341406016,6470,47.1399993896484400,6.4430999755859375,34.9855995178222660,357.1452026367187500,717.2365112304688000,6.4191489219665530,33.0212402343750000,39,3,154,259,65,2147463176,2148001187,2149063336,2147804681,3328,0,-12,38662
1341406077,6469,43.7000007629394500,6.6233000755310060,34.9795989990234400,357.3854980468750000,711.9885253906250000,6.5993437767028810,32.9171791076660160,33,3,183,296,63,2147599917,2148213120,2149618093,2148003995,3330,0,-12,25634
1341406140,6469,40.2900009155273440,6.5813999176025390,34.9425010681152340,360.0570983886719000,712.5739746093750000,6.5792560577392580,32.8415603637695300,43,3,287,357,65,2147840338,2148554194,2150441531,2148304338,2526,0,-11,16024
1341406201,6469,37.1599998474121100,6.6723999977111820,34.9059982299804700,365.4215087890625000,710.1723022460938000,6.6616148948669430,32.6268806457519500,48,3,399,349,64,2148180548,2149008333,2151458289,2148686815,2529,0,-12,33024
1341406265,6469,34.5299987792968750,7.1933999061584470,34.9118995666503900,365.4372863769531000,697.0836791992188000,7.1090722084045410,32.3906211853027340,59,3,502,505,66,2148624168,2149582386,2152646975,2149135853,2385,0,-11,46883
1341406326,6471,32.8499984741210940,7.2814002037048340,34.9208984375000000,369.3293151855469000,693.6234130859375000,7.2269821166992190,32.2076988220214840,78,3,640,534,65,2148906632,2149924977,2153337307,2149397526,2947,0,-11,36316
1341406416,6505,30.5699996948242200,7.6117000579833980,34.9199981689453100,372.9726867675781000,684.3372802734375000,7.5426411628723145,31.9322299957275400,92,3,727,688,65,2150131638,2151411103,2156120676,2150458294,1930,0,-12,58529
1341406477,6506,28.2900009155273440,7.8386001586914060,34.9188003540039060,380.6668090820312500,676.8577880859375000,7.7960801124572750,31.5706195831298830,102,3,746,787,64,2151712475,2153241019,2159259524,2151679035,1657,0,-12,16993
1341406567,6470,24.1700000762939450,7.9650998115539550,34.9015998840332000,394.9005126953125000,671.8870239257812000,7.9641170501708980,31.0715503692626950,78,3,608,577,64,2156800452,2158804945,2167860246,2155283026,991,0,-12,522
1341406628,6471,20.4099998474121100,8.4065999984741210,34.8972015380859400,400.0372009277344000,658.8322753906250000,8.4039688110351560,30.7074604034423830,91,3,564,601,63,2164403592,2166887437,2179189087,2160326856,309,0,-10,27895
1341406691,6468,16.7700004577636720,9.0333995819091800,34.9062004089355500,402.2294006347656000,641.2177734375000000,8.9941806793212890,30.3573799133300780,96,3,478,688,61,2177104557,2180152201,2196420032,2168409540,353,0,-12,22507
1341406752,6471,13.5500001907348630,9.6090002059936520,34.9227981567382800,395.6420898437500000,616.4979248046875000,9.8163986206054690,30.1446609497070300,81,3,383,553,62,2195410600,2199218916,2219286042,2179942738,437,0,-14,16229
1341406816,6470,11.0600004196167000,11.2297000885009770,34.9728012084960940,374.4440917968750000,576.0352783203125000,11.1479902267456050,30.1253395080566400,75,3,416,456,62,2210902162,2215639043,2237470742,2189716008,3387,4,-10,24441
1341406913,6469,9.6099996566772460,11.2822999954223630,34.9869003295898440,365.7319946289062500,571.9982299804688000,11.2799301147460940,30.3239593505859380,76,3,323,519,60,2227385155,2233183743,2257202262,2200397165,3166,0,-10,1848
1341407012,6470,6.9499998092651370,11.5686998367309570,34.9902000427246100,359.1278991699219000,562.8703002929688000,11.5776796340942380,30.3870792388916000,79,3,222,524,57,2269119235,2277051304,2301357988,2229209480,2232,1,-12,18991
1341407060,6469,4.9299998283386230,11.6282997131347660,34.9903984069824200,355.9031066894531000,561.3671875000000000,11.6266298294067380,30.4641895294189450,77,3,174,498,61,2304737179,2314406842,2337058838,2258116131,1817,2,-3,60058
1341407126,6470,30.0000000000000000,0.0000000000000000,0.0000000000000000,354.1097106933594000,560.4935302734375000,11.6550798416137700,30.5068397521972660,75,3,140,509,56,2344681270,2356115889,2375108017,2299736941,1491,-9,-3,21659
1341407163,6470,12.0000000000000000,0.0000000000000000,0.0000000000000000,353.9068908691406000,560.3641967773438000,11.6592903137207030,30.5112495422363280,80,3,124,494,58,2389370838,2403493270,2416624608,2367184187,1463,-4,11,13207
